[[{"header":{"parameterUnit":"m.s-1","parameterCategory":2,"la1":30.2991,"la2":30.254,"lo1":-89.0895,"lo2":-89.0444,"dy":0.0017,"dx":0.0017,"nx":28,"ny":28,"refTime":"2024-03-03T03:00:00:Z","depth":"0","parameterNumber":2,"parameterNumberName":"U-component_of_CURRENTS"},"data":[0,0,0,0,0,0,0,0,0,0,0,0,0,0,0,0,0,0,0,0,0,0,0,0,0,0,0,0,0,0,0,0,0,0,0,0,0,0,0,0,0,0,0,0,0,0,0,0,0,0,0,0,0,0,0,0,0,0,0.3612,0.3612,0,0.3607,0.3606,0.3606,0.3611,0.3611,0.3612,0.3612,0.3609,0.3609,0.3608,0,0,0,0,0,0,0,0,0,0,0,0,0,0.3643,0.3642,0.3612,0.3612,0.3612,0.3607,0.3606,0.3606,0.3611,0.3611,0.3612,0.3612,0.3609,0.3609,0.3608,0,0,0,0,0,0,0,0,0,0,0,0,0,0.363,0.3641,0.3612,0.3616,0.3616,0.3607,0.3606,0.3606,0.3611,0.3611,0.3612,0.3613,0.3609,0.3609,0.3608,0.359,0,0,0.3606,0.3605,0,0,0,0,0,0,0,0,0.3631,0.3629,0.3615,0.3615,0.3616,0.3612,0.3616,0.3602,0.3611,0.361,0.3612,0.3613,0.3612,0.3611,0.3604,0.359,0.359,0.3606,0.3605,0.3605,0.3605,0,0,0,0,0,0,0,0.3632,0.3629,0.3607,0.3615,0.3616,0.3624,0.3622,0.3613,0.3605,0.361,0.3611,0.3615,0.3612,0.3605,0.3604,0.359,0.3606,0.3605,0.3605,0.3604,0.3578,0.3578,0,0,0,0,0,0,0.3636,0.3629,0.3607,0.3607,0.3628,0.3623,0.3621,0.3611,0.3605,0.3606,0.3614,0.3615,0.3606,0.3605,0.3604,0.3609,0.3605,0.3604,0.3604,0.3578,0.3578,0.3578,0,0,0,0,0,0,0.3636,0.3633,0.3607,0.3621,0.3619,0.3622,0.361,0.361,0.3616,0.3609,0.3609,0.3621,0.3607,0.3605,0.3595,0.3608,0.3604,0.3603,0.3578,0.3578,0.3578,0.3601,0,0,0,0,0,0,0.3637,0.3633,0.3634,0.3621,0.3618,0.3617,0.361,0.361,0.3617,0.3619,0.3614,0.3614,0.3607,0.3596,0.3594,0.3607,0.3603,0.3579,0.3578,0.3578,0.36,0.3601,0.3602,0,0,0,0,0,0.3637,0.3638,0.3633,0.3631,0.3616,0.3618,0.3617,0.362,0.3617,0.3625,0.3609,0.3615,0.3592,0.3594,0.3593,0.3606,0.3579,0.3578,0.3578,0.36,0.3601,0.3602,0,0,0,0,0,0,0.3648,0.3638,0.3633,0.3629,0.363,0.362,0.3628,0.3625,0.3617,0.3619,0.3606,0.3604,0.3604,0.3594,0.3597,0.3595,0.3589,0.3588,0.3606,0.3607,0.3608,0.3627,0.3602,0,0,0,0,0,0.365,0.3651,0.3642,0.364,0.3641,0.3634,0.3636,0.3637,0.3628,0.3626,0.3613,0.3601,0.3597,0.3594,0.3587,0.3579,0.3607,0.3587,0.3588,0.3589,0.3601,0.3653,0.366,0.3576,0.3576,0.3576,0,0,0.3655,0.365,0.3651,0.3644,0.3641,0.3646,0.3636,0.3645,0.3646,0.3626,0.3615,0.3606,0.3596,0.3591,0.3591,0.3586,0.3625,0.3588,0.3589,0.3601,0.3653,0.3662,0.3669,0.3575,0.3575,0.3575,0,0,0.3664,0.3658,0.3662,0.3667,0.367,0.3665,0.3671,0.3659,0.3653,0.3642,0.363,0.3624,0.3606,0.3602,0.36,0.3599,0.3631,0.3598,0.3616,0.3665,0.3673,0.3681,0.3726,0.3738,0.3595,0.3595,0.3595,0,0.3669,0.3667,0.3666,0.3673,0.368,0.3675,0.3683,0.3677,0.3661,0.366,0.3645,0.3631,0.3615,0.3625,0.3618,0.3605,0.364,0.3615,0.367,0.3678,0.3685,0.373,0.3742,0.3596,0.3596,0.3596,0.3596,0,0.3679,0.3684,0.3688,0.3693,0.3703,0.371,0.3706,0.3707,0.3695,0.3689,0.369,0.3662,0.3664,0.365,0.363,0.3669,0.368,0.3671,0.3674,0.3696,0.374,0.3753,0.3597,0.3597,0.3597,0.3596,0,0,0.3652,0.3688,0.3687,0.3688,0.3714,0.3709,0.3731,0.3737,0.3742,0.373,0.3742,0.3719,0.3717,0.3712,0.3692,0.3714,0.3781,0.3713,0.3715,0.3771,0.3902,0.3862,0.3872,0.3793,0.3795,0.3797,0.3913,0,0.3651,0.3664,0.3694,0.3702,0.3699,0.3727,0.3739,0.3753,0.3758,0.3766,0.3763,0.3762,0.3738,0.3734,0.3762,0.3782,0.3816,0.3751,0.3862,0.3865,0.3838,0.3886,0.3768,0.3858,0.3926,0.3928,0.3929,0,0.363,0.3643,0.3661,0.3684,0.3687,0.3702,0.3725,0.3742,0.378,0.379,0.3822,0.382,0.3857,0.382,0.3908,0.3875,0.3895,0.3904,0.3909,0.3875,0.3849,0.3846,0.3879,0.3794,0.3949,0.3947,0.3946,0,0.3569,0.3603,0.3613,0.3625,0.3666,0.3681,0.3703,0.3745,0.3766,0.3815,0.3854,0.3892,0.393,0.3968,0.4,0.3966,0.4099,0.4055,0.4041,0.4039,0.3961,0.3947,0.3936,0.4121,0.412,0.412,0.412,0,0.3533,0.3529,0.3582,0.3583,0.3596,0.3637,0.3662,0.37,0.3763,0.3805,0.3866,0.3917,0.3974,0.4049,0.4051,0.4109,0.4159,0.4066,0.4073,0.3963,0.3949,0.3888,0.3851,0.4124,0.4123,0.4122,0.4122,0,0.3457,0.3498,0.3503,0.3552,0.3568,0.3575,0.3647,0.3657,0.375,0.382,0.3845,0.3973,0.408,0.4133,0.4208,0.4189,0.4111,0.422,0.4084,0.4073,0.3935,0.3903,0.3755,0.3641,0.4215,0.4215,0.4215,0,0.3411,0.3411,0.3471,0.348,0.3505,0.3532,0.3548,0.3634,0.3668,0.3846,0.3876,0.4022,0.4106,0.4237,0.4222,0.4252,0.4119,0.4143,0.4034,0.3931,0.3902,0.3721,0.3622,0.3946,0.3944,0.3942,0.394,0,0.3327,0.3363,0.3383,0.341,0.3428,0.3458,0.35,0.3529,0.3646,0.3727,0.3857,0.3947,0.4111,0.4103,0.4165,0.4154,0.3948,0.4102,0.4035,0.3729,0.3492,0.3385,0.387,0.3923,0.3925,0.3926,0.3927,0.3928,0.3262,0.3266,0.3303,0.3314,0.3339,0.3359,0.3341,0.3415,0.3475,0.3564,0.3736,0.3814,0.395,0.4022,0.3995,0.3888,0.3831,0.377,0.3757,0.3594,0.3417,0.3863,0.3892,0.3894,0.3895,0.3896,0.3897,0,0.3154,0.3175,0.319,0.3201,0.3173,0.3237,0.3272,0.3237,0.3256,0.3402,0.349,0.3591,0.363,0.3701,0.3707,0.3582,0.3379,0.3477,0.3206,0.3138,0.3593,0.3515,0.3414,0.3414,0.3414,0.3414,0.3414,0.3415,0.3103,0.3078,0.3089,0.3019,0.3019,0.2952,0.2944,0.2945,0.3009,0.304,0.3078,0.3183,0.3401,0.3518,0.3442,0.3354,0.3096,0.2944,0.2914,0.3275,0.33,0.3324,0.324,0.3084,0.3083,0.2316,0.2311,0.2307]},{"header":{"parameterUnit":"m.s-1","parameterCategory":2,"la1":30.2991,"la2":30.254,"lo1":-89.0895,"lo2":-89.0444,"dy":0.0017,"dx":0.0017,"nx":28,"ny":28,"refTime":"2024-03-03T03:00:00:Z","depth":"0","parameterNumber":3,"parameterNumberName":"V-component_of_CURRENTS"},"data":[0,0,0,0,0,0,0,0,0,0,0,0,0,0,0,0,0,0,0,0,0,0,0,0,0,0,0,0,0,0,0,0,0,0,0,0,0,0,0,0,0,0,0,0,0,0,0,0,0,0,0,0,0,0,0,0,0,0,0.0091,0.0091,0,0.0055,0.0054,0.0054,0.0009,0.0008,0.0007,0.0007,-0.0087,-0.0088,-0.009,0,0,0,0,0,0,0,0,0,0,0,0,0,0.0069,0.007,0.0091,0.0091,0.009,0.0055,0.0054,0.0054,0.0009,0.0008,0.0007,0.0007,-0.0086,-0.0088,-0.009,0,0,0,0,0,0,0,0,0,0,0,0,0,0.0059,0.007,0.0091,0.0064,0.0062,0.0055,0.0054,0.0053,0.0009,0.0008,0.0007,0.0006,-0.0085,-0.0088,-0.0091,-0.0091,0,0,-0.01,-0.0101,0,0,0,0,0,0,0,0,0.006,0.006,0.0069,0.0066,0.0063,0.0036,0.0012,0.0003,0.0009,0.0028,0.0007,0.0006,-0.0049,-0.0055,-0.0061,-0.0095,-0.0099,-0.01,-0.0102,-0.0103,-0.0104,0,0,0,0,0,0,0,0.0061,0.0061,0.0075,0.0068,0.0065,0.0037,0.0035,0.001,-0.0007,0.0026,0.0023,0.0021,-0.0051,-0.0058,-0.0064,-0.01,-0.01,-0.0102,-0.0104,-0.0105,-0.0131,-0.013,0,0,0,0,0,0,0.0072,0.0062,0.0076,0.0074,0.0061,0.0038,0.0036,0.0045,-0.0006,-0.0014,0.0022,0.0019,-0.0053,-0.006,-0.0067,-0.0051,-0.0103,-0.0106,-0.0107,-0.0132,-0.0131,-0.013,0,0,0,0,0,0,0.0072,0.0074,0.0078,0.0067,0.0066,0.004,0.005,0.0045,0.0042,-0.0008,-0.0017,0.0025,-0.0054,-0.0063,-0.0078,-0.0056,-0.0107,-0.011,-0.0133,-0.0132,-0.013,-0.0032,0,0,0,0,0,0,0.0071,0.0074,0.0082,0.0069,0.0067,0.0086,0.0051,0.0045,0.0042,0.0039,-0.0008,-0.0018,-0.0055,-0.0073,-0.0081,-0.0061,-0.0112,-0.0135,-0.0133,-0.0131,-0.0037,-0.0028,-0.002,0,0,0,0,0,0.0071,0.009,0.0083,0.0084,0.008,0.0087,0.0084,0.006,0.0044,0.0053,0.002,-0.0016,-0.0066,-0.0074,-0.0084,-0.0065,-0.0136,-0.0133,-0.0131,-0.0041,-0.003,-0.002,0,0,0,0,0,0,0.0089,0.0087,0.0078,0.0097,0.0097,0.008,0.0083,0.0071,0.0053,0.0044,-0.0003,-0.0014,-0.0022,-0.0054,-0.0061,-0.0066,-0.0107,-0.0106,-0.0035,-0.0025,-0.0017,0.0,-0.0114,0,0,0,0,0,0.0097,0.0108,0.0104,0.012,0.0121,0.0104,0.0103,0.0091,0.0075,0.0066,0.0035,0.0002,-0.0019,-0.003,-0.0059,-0.0057,-0.0088,-0.0051,-0.0042,-0.0035,-0.0027,-0.0056,-0.0049,-0.0122,-0.0122,-0.0122,0,0,0.0107,0.0109,0.0114,0.0124,0.0118,0.0139,0.0101,0.0107,0.0125,0.0058,0.0066,0.0028,-0.0013,-0.0014,-0.002,-0.0037,-0.0027,-0.0032,-0.0025,-0.0021,-0.0053,-0.0046,-0.0039,-0.012,-0.0121,-0.0121,0,0,0.0142,0.0138,0.016,0.0166,0.0167,0.0163,0.0171,0.0162,0.0155,0.0158,0.0115,0.0097,0.0063,0.0044,0.0029,0.007,0.0015,0.0058,0.012,0.0092,0.0098,0.0102,0.0085,0.0087,0.0067,0.0067,0.0067,0,0.0154,0.0187,0.0168,0.0195,0.0209,0.0183,0.0217,0.0213,0.02,0.0203,0.0171,0.0132,0.0093,0.0102,0.0113,0.009,0.0065,0.0085,0.0104,0.0107,0.011,0.0091,0.0093,0.0072,0.0072,0.0071,0.0071,0,0.0207,0.0233,0.0249,0.0278,0.0289,0.0314,0.031,0.0317,0.0301,0.0293,0.0287,0.0234,0.0212,0.0199,0.0167,0.0178,0.0152,0.0115,0.008,0.0124,0.0101,0.0101,0.0079,0.0078,0.0076,0.0075,0,0,0.0247,0.028,0.0289,0.0317,0.0335,0.0356,0.0385,0.0409,0.0439,0.0401,0.0429,0.0382,0.0344,0.0324,0.0279,0.0257,0.0257,0.0202,0.0199,0.0191,0.0203,0.0178,0.0174,0.022,0.022,0.022,0.0184,0,0.03,0.0369,0.037,0.0441,0.0479,0.0467,0.0505,0.0517,0.0513,0.053,0.0471,0.0469,0.0396,0.0386,0.0353,0.0284,0.0258,0.0271,0.0157,0.0154,0.013,0.0174,0.0197,0.0165,0.0183,0.0183,0.0183,0,0.0361,0.0402,0.0476,0.0534,0.0549,0.0585,0.0641,0.0669,0.0677,0.067,0.0648,0.0594,0.0563,0.0484,0.0389,0.04,0.0311,0.0247,0.0243,0.0184,0.0128,0.012,0.0163,-0.0007,0.0181,0.0181,0.0181,0,0.0411,0.048,0.0544,0.0563,0.062,0.0652,0.0685,0.0714,0.0756,0.0759,0.0786,0.0715,0.0698,0.0577,0.0436,0.0412,0.0325,0.0273,0.0166,0.0164,0.0143,0.0138,0.0011,0.0196,0.0196,0.0196,0.0196,0,0.0477,0.0529,0.0574,0.0612,0.0702,0.0713,0.0804,0.0825,0.0868,0.0946,0.0862,0.0908,0.0718,0.0639,0.0486,0.0339,0.0359,0.019,0.0156,0.0179,0.0178,-0.0006,-0.011,0.0194,0.0195,0.0195,0.0195,0,0.0526,0.0552,0.063,0.0698,0.0729,0.0793,0.0888,0.0952,0.0985,0.1085,0.1089,0.1054,0.0967,0.0769,0.0586,0.0425,0.0168,0.0201,0.0246,0.0217,-0.0047,-0.0146,-0.0316,-0.0403,0.0087,0.0086,0.0085,0,0.0559,0.0603,0.0694,0.0749,0.0785,0.0879,0.0951,0.1008,0.1087,0.1197,0.1255,0.1201,0.1212,0.0934,0.0622,0.035,0.0163,0.0166,0.0115,-0.0047,-0.0184,-0.0257,-0.0324,0.0132,0.0132,0.0132,0.0132,0,0.0624,0.0647,0.0711,0.0825,0.0909,0.1014,0.1123,0.1205,0.1297,0.1404,0.1541,0.1564,0.1317,0.1062,0.0655,0.0453,0.0044,0.0153,-0.0028,-0.0165,-0.024,-0.0344,0.0143,0.013,0.013,0.013,0.013,0.013,0.0668,0.0722,0.0801,0.091,0.1011,0.1143,0.1245,0.138,0.1544,0.1736,0.1749,0.1845,0.1456,0.0927,0.0607,0.004,0.0024,-0.0127,-0.0232,-0.029,-0.0384,0.0104,0.0053,0.0053,0.0052,0.0052,0.0052,0,0.0725,0.0785,0.0884,0.1015,0.1131,0.1176,0.1357,0.148,0.1698,0.1899,0.2038,0.193,0.1434,0.0908,0.0147,-0.0264,-0.0417,-0.0487,-0.0588,-0.0639,-0.0207,-0.0215,-0.031,-0.031,-0.0309,-0.0309,-0.0309,-0.0309,0.0758,0.0851,0.09,0.1092,0.1188,0.1355,0.1464,0.1671,0.1847,0.212,0.222,0.2254,0.1867,0.0514,-0.0419,-0.0641,-0.0916,-0.098,-0.1138,-0.0848,-0.0822,-0.0798,-0.0829,-0.1052,-0.1053,-0.1505,-0.151,-0.1513]}],[{"header":{"parameterUnit":"m.s-1","parameterCategory":2,"la1":30.2991,"la2":30.254,"lo1":-89.0895,"lo2":-89.0444,"dy":0.0017,"dx":0.0017,"nx":28,"ny":28,"refTime":"2024-03-03T03:00:00:Z","depth":"2","parameterNumber":2,"parameterNumberName":"U-component_of_CURRENTS"},"data":[0,0,0,0,0,0,0,0,0,0,0,0,0,0,0,0,0,0,0,0,0,0,0,0,0,0,0,0,0,0,0,0,0,0,0,0,0,0,0,0,0,0,0,0,0,0,0,0,0,0,0,0,0,0,0,0,0,0,0.2627,0.2627,0,0.2659,0.2659,0.2659,0.2662,0.2662,0.2662,0.2662,0.2675,0.2675,0.2676,0,0,0,0,0,0,0,0,0,0,0,0,0,0.2576,0.2577,0.2627,0.2627,0.2628,0.2659,0.2659,0.2659,0.2662,0.2662,0.2662,0.2662,0.2675,0.2675,0.2676,0,0,0,0,0,0,0,0,0,0,0,0,0,0.2599,0.2577,0.2626,0.2635,0.2637,0.2659,0.2659,0.2659,0.2662,0.2662,0.2662,0.2662,0.2675,0.2675,0.2676,0.2681,0,0,0.2678,0.2678,0,0,0,0,0,0,0,0,0.2598,0.26,0.2633,0.2635,0.2636,0.2659,0.2646,0.2667,0.2662,0.2649,0.2662,0.2662,0.267,0.2671,0.2673,0.2681,0.2682,0.2678,0.2678,0.2678,0.2678,0,0,0,0,0,0,0,0.2596,0.2599,0.2636,0.2634,0.2636,0.2641,0.2644,0.265,0.2657,0.265,0.2651,0.266,0.267,0.2672,0.2673,0.2682,0.2678,0.2678,0.2678,0.2679,0.2738,0.2739,0,0,0,0,0,0,0.2599,0.2598,0.2635,0.2637,0.262,0.2642,0.2645,0.2649,0.2657,0.2659,0.266,0.266,0.2671,0.2672,0.2674,0.2719,0.2678,0.2679,0.2679,0.2737,0.2738,0.274,0,0,0,0,0,0,0.2597,0.2601,0.2634,0.2621,0.2626,0.2644,0.2648,0.265,0.2664,0.2665,0.2666,0.2673,0.2671,0.2673,0.2693,0.2718,0.2679,0.268,0.2735,0.2737,0.2739,0.2786,0,0,0,0,0,0,0.2595,0.26,0.2611,0.2621,0.2627,0.2656,0.2648,0.2651,0.267,0.2671,0.2677,0.2677,0.2671,0.2692,0.2693,0.2718,0.268,0.2734,0.2736,0.2738,0.2783,0.2789,0.2794,0,0,0,0,0,0.2593,0.2603,0.2611,0.2616,0.2638,0.2657,0.266,0.267,0.2671,0.2681,0.2687,0.2678,0.2707,0.2693,0.2695,0.2721,0.2733,0.2735,0.2738,0.278,0.2788,0.2794,0,0,0,0,0,0,0.2586,0.2606,0.2613,0.2629,0.2648,0.2659,0.2672,0.2679,0.2692,0.2696,0.269,0.2692,0.2724,0.2714,0.2699,0.2745,0.272,0.2723,0.2751,0.2758,0.2764,0.2779,0.268,0,0,0,0,0,0.2591,0.2602,0.2624,0.2637,0.2648,0.2663,0.2675,0.2685,0.2697,0.2702,0.2709,0.2718,0.2735,0.2739,0.2752,0.2771,0.2782,0.279,0.2796,0.2801,0.2815,0.2853,0.2864,0.2749,0.2748,0.2748,0,0,0.2587,0.2604,0.2608,0.2637,0.265,0.2673,0.2669,0.2694,0.2715,0.2702,0.2731,0.2743,0.2746,0.2775,0.2787,0.2769,0.284,0.2805,0.2809,0.2821,0.2857,0.2868,0.2878,0.275,0.275,0.275,0,0,0.2591,0.2607,0.262,0.2641,0.2675,0.2688,0.2699,0.2723,0.2736,0.2764,0.2769,0.2796,0.2809,0.2824,0.2831,0.2876,0.2875,0.2879,0.2915,0.2951,0.2961,0.297,0.3,0.3011,0.2875,0.2875,0.2875,0,0.2593,0.2609,0.2628,0.2653,0.2671,0.2697,0.2719,0.274,0.2769,0.279,0.278,0.2834,0.2835,0.288,0.2897,0.2891,0.2909,0.2886,0.296,0.2968,0.2977,0.3005,0.3017,0.2878,0.2878,0.2877,0.2877,0,0.2604,0.2626,0.2637,0.2675,0.2701,0.2722,0.2758,0.2791,0.281,0.2833,0.2887,0.2896,0.2931,0.2935,0.2928,0.2992,0.2987,0.2968,0.2941,0.2991,0.3018,0.3029,0.2882,0.2881,0.288,0.2879,0,0,0.2582,0.2633,0.2637,0.2656,0.2712,0.2728,0.2782,0.2832,0.2869,0.2906,0.2952,0.2989,0.3009,0.302,0.3023,0.305,0.312,0.3037,0.3038,0.3067,0.3206,0.3169,0.3178,0.3116,0.3118,0.312,0.3202,0,0.2584,0.2621,0.2652,0.2689,0.2709,0.2759,0.2801,0.2857,0.2901,0.2955,0.2994,0.3038,0.3037,0.3057,0.3093,0.3119,0.3153,0.31,0.3154,0.3155,0.3117,0.3191,0.2935,0.2983,0.3212,0.3214,0.3216,0,0.258,0.2608,0.2638,0.2693,0.2707,0.2739,0.2815,0.286,0.2954,0.2992,0.3064,0.3094,0.3168,0.314,0.3234,0.3204,0.3218,0.3226,0.3229,0.3188,0.314,0.2971,0.2995,0.3234,0.3233,0.3232,0.323,0,0.2537,0.2594,0.2613,0.2631,0.2702,0.2734,0.2782,0.2874,0.2928,0.3027,0.3082,0.3163,0.3218,0.3258,0.3304,0.3274,0.3391,0.3344,0.3325,0.3322,0.3112,0.3087,0.3405,0.3405,0.3404,0.3404,0.3404,0,0.2512,0.2527,0.2595,0.2602,0.2641,0.2707,0.2768,0.2834,0.2944,0.3012,0.3103,0.3172,0.3253,0.3329,0.3341,0.3391,0.343,0.3359,0.3352,0.3121,0.3098,0.3315,0.3303,0.3407,0.3407,0.3406,0.3405,0,0.2451,0.2492,0.252,0.2593,0.2619,0.2649,0.2761,0.2806,0.2927,0.3024,0.3063,0.3213,0.3316,0.3389,0.3461,0.3445,0.3475,0.3473,0.3204,0.3164,0.3368,0.3358,0.346,0.3459,0.3459,0.3459,0.3458,0,0.2415,0.2425,0.2498,0.2517,0.2548,0.2611,0.2652,0.278,0.284,0.3036,0.3073,0.3231,0.331,0.3437,0.3434,0.3468,0.3506,0.3233,0.3127,0.3396,0.3379,0.337,0.336,0.2862,0.2857,0.2853,0.285,0,0.2356,0.2387,0.2409,0.2451,0.2489,0.2532,0.261,0.2659,0.2808,0.2906,0.3033,0.312,0.327,0.3205,0.3277,0.3248,0.3208,0.3151,0.3509,0.2898,0.2842,0.2823,0.2831,0.2813,0.2817,0.2819,0.2821,0.2823,0.231,0.2311,0.2347,0.2371,0.2411,0.2433,0.2433,0.2527,0.2607,0.2715,0.2883,0.2932,0.3001,0.299,0.2916,0.2861,0.3074,0.2914,0.2923,0.2937,0.2863,0.2811,0.2761,0.2764,0.2767,0.277,0.2772,0,0.2239,0.2246,0.2266,0.2279,0.2266,0.2331,0.2375,0.2351,0.2382,0.2522,0.2614,0.248,0.248,0.254,0.2412,0.2429,0.2356,0.2317,0.2188,0.223,0.2266,0.2151,0.1864,0.1861,0.1858,0.1855,0,0,0.2202,0.2177,0.2176,0.212,0.2132,0.2077,0.2072,0.2065,0.2118,0.2125,0.2151,0.2375,0.2484,0.2143,0.2112,0.1957,0.2062,0.188,0.262,0.251,0.2541,0.2638,0.2515,0,0,0,0,0]},{"header":{"parameterUnit":"m.s-1","parameterCategory":2,"la1":30.2991,"la2":30.254,"lo1":-89.0895,"lo2":-89.0444,"dy":0.0017,"dx":0.0017,"nx":28,"ny":28,"refTime":"2024-03-03T03:00:00:Z","depth":"2","parameterNumber":3,"parameterNumberName":"V-component_of_CURRENTS"},"data":[0,0,0,0,0,0,0,0,0,0,0,0,0,0,0,0,0,0,0,0,0,0,0,0,0,0,0,0,0,0,0,0,0,0,0,0,0,0,0,0,0,0,0,0,0,0,0,0,0,0,0,0,0,0,0,0,0,0,0.017,0.0169,0,0.0134,0.0133,0.0133,0.0107,0.0107,0.0107,0.0107,0.0042,0.0041,0.0039,0,0,0,0,0,0,0,0,0,0,0,0,0,0.0169,0.0169,0.017,0.0169,0.0169,0.0134,0.0133,0.0133,0.0107,0.0107,0.0107,0.0107,0.0043,0.0041,0.0039,0,0,0,0,0,0,0,0,0,0,0,0,0,0.0154,0.0169,0.017,0.0152,0.0151,0.0134,0.0133,0.0133,0.0108,0.0107,0.0107,0.0107,0.0043,0.0041,0.0039,0.0028,0,0,0.0031,0.003,0,0,0,0,0,0,0,0,0.0155,0.0154,0.0155,0.0154,0.0152,0.0126,0.0109,0.0096,0.0108,0.0123,0.0107,0.0107,0.0068,0.0063,0.0057,0.0025,0.0022,0.0031,0.003,0.0029,0.0028,0,0,0,0,0,0,0,0.0156,0.0155,0.0155,0.0155,0.0153,0.0131,0.0129,0.0107,0.0096,0.0122,0.012,0.0117,0.0067,0.0059,0.0055,0.0021,0.0031,0.0029,0.0027,0.0027,-0.0021,-0.0021,0,0,0,0,0,0,0.0165,0.0157,0.0156,0.0154,0.0154,0.0131,0.0129,0.0134,0.0097,0.0092,0.0117,0.0116,0.0063,0.0058,0.0052,0.0051,0.0029,0.0026,0.0025,-0.0022,-0.0021,-0.0021,0,0,0,0,0,0,0.0165,0.0166,0.0157,0.0154,0.0152,0.0132,0.0137,0.0133,0.0128,0.0094,0.0088,0.0117,0.0063,0.0056,0.0041,0.0048,0.0025,0.0023,-0.0022,-0.0022,-0.0021,0.0039,0,0,0,0,0,0,0.0166,0.0166,0.0171,0.0155,0.0152,0.0156,0.0137,0.0132,0.0127,0.0125,0.0092,0.0085,0.0062,0.0045,0.0039,0.0044,0.0021,-0.0022,-0.0022,-0.0021,0.0037,0.0041,0.0045,0,0,0,0,0,0.0166,0.0178,0.0171,0.0171,0.0161,0.0157,0.0154,0.0137,0.0127,0.0131,0.0109,0.0086,0.0042,0.0043,0.0036,0.0041,-0.0022,-0.0022,-0.0021,0.0035,0.0041,0.0045,0,0,0,0,0,0,0.018,0.0176,0.0169,0.0178,0.0171,0.0153,0.0154,0.0142,0.0127,0.0123,0.0091,0.0083,0.0071,0.0047,0.0049,0.0027,0.0005,0.0004,0.0051,0.0055,0.0059,0.0079,0.0019,0,0,0,0,0,0.0186,0.0194,0.0184,0.0192,0.0191,0.0173,0.0168,0.0158,0.0143,0.0136,0.0113,0.0087,0.0066,0.0055,0.0033,0.0022,-0.0005,0.0019,0.0023,0.0027,0.0037,-0.0002,-0.0,-0.002,-0.002,-0.002,0,0,0.0192,0.0192,0.0196,0.0196,0.0188,0.0197,0.017,0.0169,0.0175,0.0131,0.0131,0.0101,0.0067,0.0057,0.0049,0.0038,0.0018,0.0027,0.0031,0.0039,-0.0002,0.0,0.0002,-0.002,-0.002,-0.002,0,0,0.0216,0.0212,0.0228,0.0227,0.0222,0.0214,0.0217,0.0202,0.0195,0.0189,0.0158,0.0136,0.0106,0.0084,0.0069,0.0081,0.0041,0.007,0.0108,0.007,0.0071,0.0072,0.0042,0.004,0.0072,0.0072,0.0072,0,0.0223,0.0245,0.0231,0.0247,0.0254,0.0228,0.0247,0.0237,0.0219,0.0216,0.0197,0.0153,0.012,0.011,0.0113,0.0091,0.0066,0.0094,0.0076,0.0076,0.0076,0.0045,0.0042,0.0075,0.0075,0.0075,0.0074,0,0.0259,0.0276,0.0287,0.0302,0.0305,0.0318,0.0306,0.0305,0.0289,0.0275,0.0258,0.0212,0.0188,0.0169,0.0145,0.0131,0.0111,0.0087,0.0067,0.0082,0.0048,0.0043,0.008,0.0079,0.0078,0.0077,0,0,0.0287,0.0308,0.0314,0.0334,0.0337,0.0348,0.0358,0.0363,0.0378,0.034,0.0349,0.03,0.0271,0.0251,0.0211,0.0176,0.0147,0.0137,0.0134,0.0114,0.0069,0.0053,0.0046,0.0119,0.0118,0.0118,0.0046,0,0.0323,0.0369,0.0367,0.0413,0.0438,0.0423,0.0443,0.0439,0.0426,0.0426,0.0368,0.0358,0.0303,0.0294,0.0249,0.0178,0.0138,0.0169,0.0051,0.0048,0.0037,0.0041,0.007,0.0009,0.0042,0.0041,0.004,0,0.0364,0.0393,0.0444,0.0482,0.0492,0.0512,0.0541,0.0555,0.0541,0.053,0.0499,0.0452,0.0403,0.0349,0.0234,0.0257,0.0172,0.0107,0.0102,0.0064,0.0023,-0.0003,-0.0001,0.0032,0.0033,0.0034,0.0034,0,0.0404,0.0449,0.0496,0.0509,0.0544,0.0563,0.0582,0.0587,0.0616,0.0596,0.061,0.0531,0.0505,0.0388,0.0252,0.0242,0.012,0.0085,-0.0012,-0.0014,-0.0023,-0.0025,-0.0003,-0.0003,-0.0003,-0.0003,-0.0002,0,0.045,0.0487,0.052,0.0548,0.0615,0.0615,0.068,0.0685,0.0703,0.0754,0.067,0.0683,0.0513,0.0421,0.0282,0.013,0.0139,-0.0,-0.0033,-0.0001,-0.0001,-0.0008,-0.0007,-0.0005,-0.0005,-0.0004,-0.0004,0,0.0489,0.0506,0.0566,0.0613,0.0637,0.0686,0.0756,0.0801,0.081,0.0871,0.0871,0.0797,0.0685,0.0508,0.0319,0.0183,0.0028,-0.0033,0.0021,-0.0005,-0.0091,-0.0086,-0.0147,-0.0148,-0.0149,-0.015,-0.0151,0,0.0511,0.0547,0.0622,0.0667,0.0692,0.0765,0.0822,0.0856,0.0913,0.095,0.0986,0.0895,0.0855,0.0571,0.0311,0.0066,0.0029,-0.008,-0.0102,-0.0079,-0.0105,-0.0099,-0.0094,-0.0093,-0.0093,-0.0093,-0.0093,0,0.0559,0.0584,0.0635,0.0732,0.0799,0.0888,0.0969,0.1034,0.1089,0.1139,0.1182,0.1151,0.0894,0.0645,0.0301,0.0136,-0.004,-0.0091,-0.0083,-0.0057,-0.0033,-0.0056,-0.0052,-0.0094,-0.0094,-0.0094,-0.0094,-0.0094,0.0595,0.064,0.0709,0.0803,0.0888,0.1001,0.1082,0.1172,0.128,0.1369,0.1328,0.1291,0.1004,0.0573,0.0269,-0.0053,-0.0036,-0.0153,-0.015,-0.0148,-0.0125,-0.0104,-0.0174,-0.0175,-0.0175,-0.0175,-0.0175,0,0.064,0.0691,0.0775,0.0886,0.0984,0.1028,0.1175,0.1258,0.1393,0.1467,0.1502,0.1237,0.0957,0.0626,0.0151,-0.0131,-0.0147,-0.022,-0.0181,-0.0176,-0.0174,-0.0151,-0.0208,-0.0209,-0.021,-0.0211,0,0,0.0663,0.0743,0.0786,0.0947,0.1032,0.1175,0.1265,0.1391,0.1475,0.1547,0.153,0.1476,0.1068,0.0717,0.0334,0.0059,0.0008,0.0009,0.0069,0.0166,0.0172,-0.01,-0.0056,0,0,0,0,0]}],[{"header":{"parameterUnit":"m.s-1","parameterCategory":2,"la1":30.2991,"la2":30.254,"lo1":-89.0895,"lo2":-89.0444,"dy":0.0017,"dx":0.0017,"nx":28,"ny":28,"refTime":"2024-03-03T03:00:00:Z","depth":"4","parameterNumber":2,"parameterNumberName":"U-component_of_CURRENTS"},"data":[0,0,0,0,0,0,0,0,0,0,0,0,0,0,0,0,0,0,0,0,0,0,0,0,0,0,0,0,0,0,0,0,0,0,0,0,0,0,0,0,0,0,0,0,0,0,0,0,0,0,0,0,0,0,0,0,0,0,0.1666,0.1667,0,0.1734,0.1735,0.1735,0.1791,0.1792,0.1793,0.1793,0.1862,0.1863,0.1864,0,0,0,0,0,0,0,0,0,0,0,0,0,0.1567,0.1568,0.1666,0.1667,0.1668,0.1734,0.1735,0.1735,0.1791,0.1792,0.1793,0.1794,0.1862,0.1863,0.1864,0,0,0,0,0,0,0,0,0,0,0,0,0,0.1617,0.1568,0.1665,0.1706,0.171,0.1734,0.1735,0.1735,0.1791,0.1792,0.1793,0.1794,0.1861,0.1863,0.1864,0.1849,0,0,0.1869,0.187,0,0,0,0,0,0,0,0,0.1614,0.162,0.1699,0.1703,0.1708,0.1758,0.1725,0.1774,0.179,0.1757,0.1793,0.1795,0.1828,0.1832,0.1839,0.1853,0.1856,0.1869,0.187,0.1871,0.1871,0,0,0,0,0,0,0,0.1611,0.1618,0.169,0.17,0.1705,0.1714,0.1723,0.1734,0.1783,0.176,0.1765,0.1776,0.183,0.1837,0.1841,0.1857,0.1869,0.1871,0.1872,0.1872,0.198,0.1982,0,0,0,0,0,0,0.1607,0.1615,0.1688,0.1692,0.1666,0.1715,0.1725,0.1738,0.1783,0.1792,0.1775,0.1779,0.1834,0.1839,0.1843,0.1931,0.1871,0.1872,0.1873,0.1978,0.198,0.1982,0,0,0,0,0,0,0.1605,0.1613,0.1685,0.1657,0.1667,0.1716,0.1731,0.1739,0.1784,0.1795,0.1803,0.1817,0.1835,0.1841,0.1893,0.193,0.1873,0.1875,0.1976,0.1979,0.1981,0.204,0,0,0,0,0,0,0.1602,0.1612,0.1636,0.1657,0.1669,0.1723,0.173,0.174,0.1788,0.1794,0.1832,0.1838,0.1836,0.1891,0.1895,0.1931,0.1876,0.1973,0.1977,0.198,0.2035,0.2044,0.2052,0,0,0,0,0,0.1598,0.1618,0.1636,0.1646,0.1695,0.1725,0.1732,0.1768,0.1789,0.1813,0.1847,0.1839,0.1916,0.1894,0.1898,0.1935,0.1972,0.1976,0.198,0.2032,0.2043,0.2052,0,0,0,0,0,0,0.1589,0.1627,0.1647,0.168,0.1713,0.1736,0.1766,0.1788,0.1832,0.1852,0.1859,0.1867,0.193,0.1924,0.1899,0.1979,0.1944,0.1949,0.1982,0.1992,0.2,0.2009,0.1877,0,0,0,0,0,0.1597,0.1626,0.166,0.1691,0.1711,0.1746,0.177,0.1796,0.183,0.1852,0.188,0.1912,0.1943,0.1963,0.1987,0.2024,0.2025,0.2053,0.2061,0.2068,0.2079,0.2111,0.2122,0.1996,0.1996,0.1996,0,0,0.1602,0.1628,0.1646,0.1692,0.1722,0.1755,0.1764,0.1812,0.1849,0.1851,0.192,0.1947,0.1962,0.2012,0.2038,0.2016,0.2106,0.2073,0.2079,0.2087,0.2116,0.2128,0.2139,0.1999,0.1999,0.1998,0,0,0.1614,0.1653,0.1679,0.1711,0.1766,0.1787,0.1809,0.1857,0.1893,0.195,0.1969,0.2021,0.2061,0.2083,0.2096,0.2163,0.2153,0.2176,0.2219,0.225,0.226,0.2269,0.2288,0.2299,0.2174,0.2174,0.2174,0,0.1623,0.1659,0.1692,0.1726,0.1759,0.1805,0.1841,0.1879,0.1941,0.1976,0.1985,0.2078,0.2094,0.2152,0.2182,0.2182,0.2195,0.2177,0.2259,0.2268,0.2277,0.2294,0.2305,0.2177,0.2177,0.2177,0.2176,0,0.1645,0.1689,0.1709,0.1767,0.1805,0.1847,0.1899,0.1954,0.2003,0.2039,0.2126,0.2155,0.221,0.2225,0.2226,0.23,0.229,0.2269,0.223,0.2293,0.2307,0.2318,0.2182,0.2181,0.218,0.2179,0,0,0.1624,0.1707,0.172,0.1754,0.1834,0.1861,0.1936,0.2006,0.2062,0.213,0.2197,0.2264,0.2297,0.2315,0.233,0.2358,0.2429,0.2348,0.2348,0.2361,0.25,0.2355,0.2352,0.2427,0.2429,0.243,0.2487,0,0.1635,0.1696,0.1741,0.1808,0.1843,0.1913,0.1972,0.2047,0.2115,0.2191,0.2246,0.2316,0.2324,0.2363,0.24,0.2429,0.2459,0.2416,0.2444,0.2445,0.2302,0.2359,0.2437,0.2495,0.2497,0.2498,0.25,0,0.1638,0.1681,0.1745,0.1829,0.1853,0.1907,0.2015,0.2077,0.219,0.2244,0.2332,0.2377,0.2461,0.2442,0.2531,0.2508,0.252,0.2526,0.2527,0.2378,0.2318,0.242,0.2517,0.2516,0.2515,0.2513,0.2512,0,0.159,0.1681,0.1732,0.1763,0.1866,0.1921,0.1989,0.2103,0.217,0.2292,0.2353,0.2447,0.2512,0.2549,0.2592,0.2572,0.2664,0.2626,0.2503,0.2493,0.258,0.257,0.2677,0.2677,0.2677,0.2677,0.2677,0,0.1565,0.161,0.1722,0.1748,0.182,0.1907,0.2001,0.2082,0.2208,0.2277,0.2388,0.2449,0.2546,0.2609,0.262,0.26,0.2692,0.2524,0.2501,0.2604,0.2596,0.2587,0.2576,0.2679,0.2679,0.2678,0.2678,0,0.1499,0.1573,0.1637,0.1756,0.18,0.1857,0.2005,0.2063,0.2201,0.2296,0.2341,0.2486,0.2561,0.2632,0.2693,0.2625,0.2618,0.2585,0.2706,0.2688,0.2418,0.241,0.244,0.2436,0.2432,0.2429,0.2426,0,0.1466,0.1495,0.1628,0.1669,0.1731,0.1832,0.1894,0.2044,0.2106,0.2292,0.2318,0.2456,0.2526,0.2507,0.2589,0.2595,0.2565,0.2538,0.2461,0.2421,0.2397,0.2394,0.2391,0.242,0.2419,0.2418,0.2417,0,0.1401,0.1466,0.1518,0.1603,0.1677,0.1744,0.1849,0.1884,0.204,0.2183,0.2238,0.228,0.2362,0.2409,0.2442,0.2439,0.2538,0.2496,0.2503,0.2431,0.2396,0.2375,0.2377,0.2403,0.2405,0.2406,0.2407,0,0.1359,0.1378,0.1457,0.1516,0.1599,0.1626,0.1697,0.1765,0.1847,0.2045,0.2057,0.22,0.2333,0.233,0.2358,0.2351,0.2305,0.221,0.223,0.2246,0.2156,0.2082,0.1982,0,0,0,0,0,0.1307,0.1312,0.1361,0.1411,0.1483,0.153,0.1647,0.172,0.187,0.1855,0.1953,0.2013,0.2064,0.2149,0.2102,0.2273,0.2314,0.2207,0.2215,0.2328,0.2344,0.2256,0,0,0,0,0,0,0.1269,0.1311,0.1322,0.1306,0.1319,0.138,0.1447,0.1549,0.1557,0.172,0.1767,0.1885,0.1977,0.2069,0.2061,0.2084,0.2045,0.2303,0.2297,0.2319,0.2334,0.2346,0.2261,0,0,0,0,0]},{"header":{"parameterUnit":"m.s-1","parameterCategory":2,"la1":30.2991,"la2":30.254,"lo1":-89.0895,"lo2":-89.0444,"dy":0.0017,"dx":0.0017,"nx":28,"ny":28,"refTime":"2024-03-03T03:00:00:Z","depth":"4","parameterNumber":3,"parameterNumberName":"V-component_of_CURRENTS"},"data":[0,0,0,0,0,0,0,0,0,0,0,0,0,0,0,0,0,0,0,0,0,0,0,0,0,0,0,0,0,0,0,0,0,0,0,0,0,0,0,0,0,0,0,0,0,0,0,0,0,0,0,0,0,0,0,0,0,0,0.0152,0.0151,0,0.0129,0.0129,0.0129,0.0117,0.0117,0.0117,0.0117,0.0076,0.0075,0.0074,0,0,0,0,0,0,0,0,0,0,0,0,0,0.0151,0.0151,0.0152,0.0151,0.0151,0.0129,0.0129,0.0129,0.0117,0.0117,0.0117,0.0117,0.0077,0.0075,0.0074,0,0,0,0,0,0,0,0,0,0,0,0,0,0.0142,0.0151,0.0152,0.0143,0.0142,0.0129,0.0129,0.0129,0.0117,0.0117,0.0117,0.0117,0.0077,0.0076,0.0074,0.0063,0,0,0.0069,0.0068,0,0,0,0,0,0,0,0,0.0143,0.0142,0.0145,0.0144,0.0142,0.0126,0.0114,0.0106,0.0117,0.0126,0.0117,0.0117,0.0092,0.0089,0.0084,0.0061,0.006,0.0069,0.0068,0.0067,0.0067,0,0,0,0,0,0,0,0.0143,0.0143,0.0143,0.0144,0.0143,0.0129,0.0128,0.0112,0.0108,0.0125,0.0125,0.0123,0.0091,0.0086,0.0083,0.0059,0.0069,0.0067,0.0066,0.0066,0.0026,0.0026,0,0,0,0,0,0,0.0149,0.0144,0.0143,0.0142,0.0143,0.0129,0.0128,0.0131,0.0109,0.0106,0.0123,0.0122,0.0089,0.0085,0.0082,0.0079,0.0067,0.0065,0.0065,0.0026,0.0026,0.0026,0,0,0,0,0,0,0.0149,0.0149,0.0144,0.0142,0.0141,0.0129,0.0133,0.0131,0.013,0.0107,0.0104,0.0125,0.0089,0.0084,0.0074,0.0077,0.0065,0.0063,0.0026,0.0026,0.0026,0.0066,0,0,0,0,0,0,0.0149,0.0149,0.0154,0.0143,0.0141,0.0143,0.0133,0.013,0.0129,0.0128,0.0107,0.0103,0.0088,0.0077,0.0073,0.0074,0.0062,0.0026,0.0026,0.0026,0.0064,0.0067,0.0069,0,0,0,0,0,0.0149,0.0158,0.0154,0.0154,0.0148,0.0144,0.0142,0.0133,0.0129,0.0132,0.0118,0.0104,0.0073,0.0076,0.0071,0.0072,0.0026,0.0026,0.0026,0.0063,0.0066,0.0069,0,0,0,0,0,0,0.0159,0.0157,0.0153,0.016,0.0155,0.0142,0.0144,0.0137,0.0128,0.0128,0.0106,0.0102,0.0093,0.0076,0.008,0.0058,0.0046,0.0044,0.0076,0.0078,0.0081,0.0097,0.0061,0,0,0,0,0,0.0164,0.0171,0.0163,0.0169,0.0168,0.0157,0.0154,0.0148,0.0139,0.0135,0.0121,0.0103,0.0087,0.0079,0.0063,0.0053,0.0031,0.0049,0.0051,0.0053,0.0062,0.0026,0.0026,0.0025,0.0025,0.0025,0,0,0.0169,0.0169,0.0172,0.0172,0.0167,0.0173,0.0155,0.0156,0.0161,0.0131,0.0133,0.0112,0.0086,0.0077,0.0071,0.0064,0.0041,0.0053,0.0055,0.0063,0.0025,0.0026,0.0026,0.0025,0.0025,0.0025,0,0,0.0184,0.0184,0.0195,0.0195,0.0192,0.0186,0.0189,0.0179,0.0175,0.0172,0.0151,0.0132,0.0112,0.0092,0.008,0.0084,0.0055,0.0076,0.0101,0.0066,0.0066,0.0065,0.0036,0.0033,0.0077,0.0077,0.0077,0,0.019,0.0206,0.0197,0.0208,0.0214,0.0196,0.021,0.0203,0.0191,0.019,0.0179,0.0145,0.0119,0.0105,0.0106,0.009,0.0068,0.0095,0.007,0.0069,0.0068,0.0038,0.0034,0.0079,0.0078,0.0078,0.0078,0,0.0214,0.0228,0.0235,0.0247,0.0249,0.0259,0.025,0.025,0.0242,0.0231,0.0217,0.0182,0.0163,0.0146,0.0128,0.0109,0.0096,0.0078,0.0066,0.007,0.0038,0.0033,0.0081,0.0081,0.008,0.008,0,0,0.023,0.0249,0.0254,0.027,0.0273,0.0281,0.0288,0.029,0.0301,0.0274,0.028,0.0239,0.0218,0.0202,0.017,0.0136,0.0104,0.011,0.0107,0.0087,0.0032,0.0022,0.0015,0.0083,0.0082,0.0082,0.0012,0,0.0254,0.0289,0.0289,0.0324,0.0342,0.0334,0.0348,0.0346,0.0336,0.0335,0.0288,0.028,0.0239,0.0232,0.0192,0.013,0.0094,0.0125,0.0025,0.0022,0.0018,0.001,0.008,0.0008,0.0007,0.0006,0.0006,0,0.028,0.0303,0.0342,0.0375,0.0382,0.04,0.0422,0.0433,0.042,0.0413,0.0387,0.035,0.0303,0.0266,0.0162,0.0186,0.0116,0.0061,0.0057,0.0033,0.0004,0.0001,-0.0004,-0.0003,-0.0002,-0.0002,-0.0001,0,0.0304,0.0341,0.0378,0.0389,0.0419,0.0438,0.0455,0.0457,0.0481,0.0463,0.0472,0.0404,0.038,0.0283,0.0167,0.0165,0.0048,0.0028,-0.0049,-0.005,-0.0038,-0.0037,-0.005,-0.0049,-0.0049,-0.0049,-0.0049,0,0.0331,0.0361,0.0397,0.0418,0.0474,0.0478,0.0531,0.0536,0.0551,0.0583,0.0519,0.0519,0.0383,0.0298,0.0185,0.0056,0.0057,-0.0042,-0.0069,-0.002,-0.0016,-0.0041,-0.004,-0.0052,-0.0051,-0.0051,-0.005,0,0.0351,0.0371,0.042,0.0465,0.0488,0.0529,0.0593,0.0627,0.0635,0.0672,0.0671,0.0604,0.0496,0.035,0.0189,0.009,-0.0041,-0.009,-0.002,-0.0042,-0.0119,-0.0115,-0.0176,-0.0177,-0.0178,-0.0179,-0.0179,0,0.0362,0.0391,0.0462,0.05,0.0525,0.059,0.0639,0.0672,0.0712,0.0725,0.0745,0.0656,0.0589,0.0365,0.02,-0.002,-0.0056,-0.0129,-0.0131,-0.0112,-0.0133,-0.0127,-0.0121,-0.018,-0.0181,-0.0181,-0.0181,0,0.0386,0.0414,0.0456,0.0541,0.0601,0.0676,0.0744,0.0783,0.0821,0.0825,0.0809,0.0689,0.0565,0.0378,0.0202,0.0043,-0.0085,-0.0138,-0.0137,-0.014,-0.0118,-0.0136,-0.013,-0.0184,-0.0183,-0.0183,-0.0183,0,0.0406,0.044,0.0501,0.0577,0.0659,0.0739,0.0773,0.0821,0.0864,0.0874,0.0865,0.0728,0.0647,0.041,0.0251,0.009,0.0046,-0.0015,-0.0022,-0.0021,0.0038,0.0089,0.0067,0,0,0,0,0,0.0422,0.0463,0.0531,0.0615,0.0697,0.075,0.0837,0.0863,0.09,0.0899,0.0887,0.0772,0.0541,0.0443,0.0282,0.022,0.0005,0.0023,-0.007,-0.0199,-0.0196,-0.0155,0,0,0,0,0,0,0.0432,0.0494,0.053,0.0638,0.07,0.0797,0.0857,0.088,0.0883,0.089,0.0777,0.0719,0.0499,0.0634,0.0276,0.0226,0.0141,-0.0083,-0.0087,-0.0201,-0.0198,-0.0195,-0.0153,0,0,0,0,0]}]]